Location: Fort Frances
(48.6170°N, 93.4170°W)
Time: 01:31:32
(UTC-05:00)

Daily predictions for brighter satellites

Satellite Brightness Start Highest point End
(mag) Time Altitude Azimuth Time Altitude Azimuth Time Altitude Azimuth
Okean 1 4.4 00:01:19 10° NNW 00:05:06 38° W 00:06:21 30° SW
Cosmos 1689 Rocket 3.9 00:05:20 24° ENE 00:05:26 24° ENE 00:08:06 10° NNE
Cosmos 2369 Rocket 3.0 00:12:49 31° ESE 00:13:39 33° ESE 00:18:37 10° NE
BREEZE-M TANK 3.2 00:17:10 10° W 00:23:06 39° SW 00:23:06 39° SW
Cosmos 1544 Rocket 3.7 00:26:37 50° ESE 00:27:05 53° E 00:31:19 10° NNE
CZ-2C R/B 3.9 00:24:13 10° NE 00:28:26 24° E 00:29:23 23° ESE
Cosmos 1503 Rocket 3.9 00:25:31 10° NNW 00:30:46 83° WSW 00:32:17 48° SSE
CZ-2C R/B 4.5 00:29:52 19° ESE 00:32:10 27° ENE 00:36:14 10° N
GP-B 4.4 00:29:04 10° NNE 00:32:51 27° E 00:33:36 25° E
Okean 2 3.3 00:30:06 10° N 00:34:18 80° E 00:34:49 66° SE
Meteor 1-5 Rocket 4.4 00:35:10 43° SE 00:36:30 54° E 00:41:41 10° NNE
ISS -2.5 00:37:54 45° NE 00:37:54 45° NE 00:40:23 10° ENE
CZ-4B R/B 1.7 00:38:36 58° NNE 00:38:36 58° NNE 00:41:19 10° N
Iridium 4 Rocket 4.2 00:35:25 10° N 00:41:06 57° W 00:43:33 33° SSW
Meteor 2-15 Rocket 4.4 00:35:13 10° NNW 00:41:23 80° W 00:43:39 41° S
Terra 4.2 00:44:05 10° WSW 00:45:54 12° W 00:47:45 10° WNW
Cosmos 1315 Rocket 2.6 00:46:43 81° S 00:46:55 89° E 00:50:52 10° NNE
Cosmos 1633 2.9 00:48:39 56° W 00:48:52 57° WNW 00:52:33 10° N
Meteor 2-14 Rocket 4.5 00:47:32 37° SSW 00:50:07 75° WNW 00:56:18 10° N
SeaSat 1 4.2 00:47:24 12° E 00:51:09 28° NE 00:55:19 10° NNW
Lacrosse 5 rocket 2.1 00:53:23 36° E 00:53:23 36° E 00:55:46 10° ENE
Helios 1A Rocket 3.7 00:49:19 10° NNE 00:53:15 39° E 00:53:19 39° E
Landsat 5 3.4 00:54:24 66° S 00:55:00 86° W 00:59:17 10° NNW
Cosmos 1943 Rocket 3.1 00:56:26 29° ESE 00:57:11 31° ESE 01:02:01 10° NE
NOSS 3-1 (A) 4.1 00:52:58 10° NW 01:00:19 61° WSW 01:03:41 36° S
Cosmos 968 Rocket 4.3 00:55:58 10° NNW 01:01:02 45° ENE 01:03:20 28° ESE
Meteor 2-4 Rocket 4.2 00:56:10 10° NNW 01:01:20 46° W 01:02:57 36° SW
Lacrosse 5 1.8 01:01:49 56° S 01:02:26 61° SE 01:07:28 10° ENE
Cosmos 1892 Rocket 4.2 00:58:31 10° NNW 01:02:40 43° W 01:03:15 41° WSW
CRYOSAT 2 4.5 00:58:04 10° N 01:02:57 64° E 01:03:56 52° SE
Cosmos 1515 4.4 01:00:00 10° N 01:03:43 43° ENE 01:03:59 43° E
H-2A R/B 2.6 01:00:14 10° NNE 01:04:49 85° WNW 01:05:38 60° SSW
SL-8 R/B 3.5 01:02:17 10° W 01:07:07 76° SSW 01:08:32 45° ESE
Cosmos 1459 Rocket 4.3 01:07:10 37° SE 01:09:11 52° E 01:15:04 10° NNE
Cosmos 1605 Rocket 4.1 01:07:19 37° SSW 01:09:58 71° W 01:16:24 10° N
Cosmos 1818 4.2 01:09:31 37° SE 01:09:59 38° ESE 01:15:01 10° NE
Cosmos 2285 Rocket 4.0 01:09:04 36° SSW 01:11:53 80° WNW 01:18:20 10° NNE
Cosmos 1346 Rocket 2.6 01:08:41 10° NNW 01:12:37 84° W 01:12:40 84° WSW
Genesis I 3.3 01:13:59 65° WSW 01:14:27 74° NW 01:18:29 10° NE
Cosmos 2263 4.2 01:14:26 49° S 01:15:52 69° ESE 01:21:31 10° NNE
Cosmos 1536 4.4 01:19:29 24° W 01:20:26 27° WNW 01:23:53 10° NNW
ATLAS 2AS CENTAUR R/B 3.0 01:13:44 10° NW 01:21:57 87° NE 01:27:02 25° SE
Cosmos 1602 Rocket 3.5 01:19:11 10° NNW 01:23:37 71° W 01:24:08 63° SW
Cosmos 44 Rocket 3.7 01:20:56 10° NW 01:26:06 65° NE 01:28:22 32° ESE
ALOS 2 3.8 01:26:47 29° WSW 01:27:10 29° W 01:31:02 10° NNW
Cosmos 2173 Rocket 4.1 01:25:22 41° SSE 01:27:36 70° E 01:33:56 10° NNE
Cosmos 1626 Rocket 3.6 01:24:50 10° NNW 01:29:16 63° W 01:29:47 58° SW
Cosmos 2084 Rocket 4.2 01:29:15 10° NW 01:32:05 36° W 01:32:05 36° W
Cosmos 1833 4.1 01:28:05 10° NNW 01:33:43 76° WSW 01:35:20 48° S
USA 234 3.9 01:27:22 10° NE 01:33:44 56° NNW 01:40:04 10° W
Cosmos 1455 Rocket 3.8 01:34:38 37° WSW 01:35:30 42° WNW 01:39:40 10° N
Cosmos 1975 2.7 01:35:30 78° SW 01:35:44 84° W 01:39:49 10° N
Cosmos 1992 Rocket 3.9 01:34:48 49° SSW 01:36:15 82° WNW 01:41:30 10° NNE
Cosmos 1689 Rocket 4.4 01:38:23 19° WNW 01:38:23 19° WNW 01:40:08 10° NW
BREEZE-M DEB (TANK) 3.2 01:31:28 10° W 01:43:18 89° N 01:46:35 12° ESE
Tsikada Rocket 4.3 01:41:38 10° N 01:47:52 61° ENE 01:50:56 31° SE
SL-24 DEB 4.2 01:48:03 10° N 01:52:52 87° W 01:53:55 56° S
Cosmos 1743 3.0 01:53:51 52° ESE 01:54:03 53° E 01:57:50 10° NNE
Cosmos 2369 Rocket 2.9 01:54:35 25° WSW 01:57:30 47° NW 02:02:57 10° NNE
Cosmos 2219 3.1 01:56:16 10° NNW 02:01:57 86° WSW 02:04:08 39° SSE
Cosmos 1842 4.1 01:58:57 10° N 02:02:47 44° ENE 02:03:44 37° ESE
Cosmos 2228 4.5 02:02:32 24° ESE 02:03:44 27° E 02:07:23 10° NNE
Cosmos 1066 Rocket 4.2 01:58:33 10° NNW 02:03:50 62° W 02:05:14 46° SSW
Cosmos 1340 3.5 02:00:19 10° N 02:03:59 43° ENE 02:04:48 37° ESE
Cosmos 2227 Rocket 3.6 02:02:09 10° NNW 02:07:25 37° NE 02:12:39 10° ESE
CZ-2C R/B 3.0 02:03:57 10° N 02:09:01 53° WNW 02:10:54 35° SW
PSLV R/B 4.4 02:05:33 10° NNE 02:09:45 41° E 02:10:51 35° SE
GP-B 4.1 02:06:12 10° NNW 02:10:14 34° W 02:11:03 32° WSW
Cosmos 44 3.6 02:05:08 10° NW 02:10:26 71° NE 02:13:39 22° SE
Cosmos 1606 Rocket 3.6 02:10:18 56° SSE 02:11:04 70° E 02:15:23 10° NNE
CZ-2C R/B 3.4 02:10:56 41° SW 02:11:52 46° W 02:16:36 10° NNW
ISS -2.4 02:10:40 10° WNW 02:13:51 48° N 02:17:02 10° E
PSLV R/B 4.2 02:18:21 48° WSW 02:18:35 49° W 02:22:39 10° NNW
Cosmos 1666 3.0 02:25:30 49° SE 02:26:02 55° E 02:29:46 10° NNE
Cosmos 2058 Rocket 3.2 02:26:23 47° SSE 02:27:30 68° E 02:31:56 10° NNE
SeaSat 1 2.5 02:27:10 45° SSW 02:28:24 59° WSW 02:33:19 10° NW
Cosmos 2297 Rocket 3.5 02:23:53 10° NNW 02:29:10 39° NE 02:34:26 10° ESE
Lacrosse 5 rocket 2.6 02:29:04 16° W 02:31:30 34° NNW 02:34:53 10° NE
Cosmos 1500 4.3 02:33:10 30° W 02:33:40 31° WNW 02:37:06 10° N
Cosmos 1953 Rocket 3.8 02:30:01 10° NNW 02:34:13 52° W 02:34:53 47° SW
Cosmos 1570 Rocket 4.3 02:32:53 37° S 02:34:50 60° ESE 02:40:06 10° NNE
Cosmos 1656 Rocket 3.6 02:33:23 39° SSW 02:35:35 85° ESE 02:41:15 10° NNE
Gblst 52 Del rocket 4.5 02:30:43 14° WSW 02:36:51 85° NNW 02:42:53 10° ENE
Cosmos 1943 Rocket 2.8 02:37:57 27° WSW 02:40:42 49° NW 02:46:10 10° NNE
NPP 4.4 02:35:40 10° NNE 02:40:51 45° E 02:43:33 26° SSE
Resurs 1-4 Rocket 4.5 02:39:43 10° NE 02:42:32 14° E 02:45:21 10° ESE
Cosmos 968 Rocket 4.5 02:38:10 10° NW 02:42:38 29° W 02:43:19 28° WSW
NOSS 3-4 (A) 4.4 02:37:59 10° NW 02:44:42 56° NE 02:51:49 10° ESE
NOSS 3-4 (C) 4.5 02:38:04 10° NW 02:44:50 56° NE 02:51:58 10° ESE
Cosmos 972 Rocket 4.0 02:40:25 10° NNW 02:45:20 73° ENE 02:48:35 23° SSE
Lacrosse 5 2.9 02:40:58 11° W 02:45:38 45° NNW 02:50:32 10° NE
Landsat 4 3.7 02:45:38 45° SSE 02:46:43 81° ENE 02:50:36 10° NNW
Cosmos 1726 Rocket 3.7 02:46:56 44° SW 02:48:00 58° WNW 02:52:17 10° N
Cosmos 2233 Rocket 3.9 02:48:05 32° S 02:51:08 89° E 02:57:18 10° N
Cosmos 1818 4.3 02:50:08 21° WSW 02:53:29 47° NW 02:58:49 10° NNE
Cosmos 2098 Rocket 4.5 02:50:34 31° SSW 02:54:04 64° WNW 03:01:38 10° N
NOSS 3-3 (A) 4.0 02:51:45 32° SSW 02:54:55 78° SE 03:01:46 10° NE
NOSS 3-3 (C) 4.0 02:51:51 32° SSW 02:55:01 77° SE 03:01:51 10° NE
Cosmos 1758 Rocket 4.4 02:54:13 10° NNW 02:58:21 36° W 02:59:14 33° WSW
ARIANE 5 R/B 4.3 02:56:48 10° NE 03:01:01 25° E 03:05:07 11° SSE
BREEZE-M DEB (TANK) 4.3 03:04:08 28° S 03:05:36 33° SSE 03:08:38 10° E
ERS-2 3.4 03:03:30 10° NNE 03:06:58 34° E 03:08:38 23° SSE
Uosat 12 SS-18 rocket 4.5 03:07:29 10° NW 03:11:57 51° WSW 03:14:55 23° S
ATLAS 2AS CENTAUR R/B 3.9 03:05:41 10° NW 03:12:08 27° WSW 03:14:24 24° SW
Abrixas 2.4 03:12:12 53° W 03:12:50 89° SSW 03:15:55 10° E
AQUA 3.9 03:09:46 10° NNE 03:14:33 71° ESE 03:17:03 28° S
GENESIS II 4.4 03:14:23 39° SSW 03:15:47 68° SE 03:19:55 10° NE
USA 234 4.4 03:10:01 10° ENE 03:16:07 43° N 03:22:12 10° WNW
Cosmos 1707 3.3 03:12:19 10° N 03:16:13 56° ENE 03:18:54 19° SSE
ATLAS CENTAUR R/B 3.5 03:14:20 16° SSE 03:17:02 25° ESE 03:21:04 10° ENE
Cosmos 2208 Rocket 4.1 03:15:32 30° SW 03:18:04 69° WNW 03:23:21 10° NNE
Cosmos 2298 Rocket 3.9 03:19:47 10° NNW 03:25:06 77° WSW 03:29:35 15° SSE
CBERS-1 4.0 03:20:46 10° NNE 03:25:57 89° ESE 03:28:58 26° SSW
Cosmos 972 4.3 03:25:55 10° NNW 03:30:50 86° WSW 03:35:29 12° SSE
BREEZE-M DEB (TANK) 2.9 03:31:13 27° SW 03:33:10 66° SSE 03:36:48 10° ENE
USA 161 1.6 03:34:19 29° SSE 03:35:38 75° ENE 03:38:28 10° N
CZ-2D R/B 3.3 03:31:39 10° NNE 03:36:48 40° E 03:41:52 10° SSE
Cosmos 220 Rocket 4.0 03:33:53 10° NNW 03:38:13 62° WSW 03:41:08 19° S
Okean O Rocket 4.2 03:36:02 10° NE 03:38:31 15° E 03:40:59 10° ESE
IRS-1C 4.1 03:33:13 10° NNE 03:38:37 88° WNW 03:42:12 22° SSW
Cosmos 2082 3.8 03:34:16 10° NW 03:39:47 57° WSW 03:44:49 12° S
Cosmos 2228 4.1 03:39:25 23° WSW 03:41:14 31° WNW 03:45:06 10° N
Meteor 2-5 Rocket 3.8 03:36:28 10° NNW 03:42:17 68° W 03:47:09 15° S
Cosmos 1697 Rocket 3.9 03:39:37 12° SSE 03:44:22 35° ESE 03:49:29 10° NE
SL-08 R/B 4.0 03:42:27 25° SW 03:44:28 36° W 03:48:47 10° NNW
Cosmos 2034 Rocket 4.0 03:41:26 17° S 03:46:27 84° E 03:52:40 10° N
SL-16 R/B 2.6 03:40:27 10° SSE 03:46:38 85° ENE 03:52:50 10° NNW
BREEZE-M DEB (TANK) 1.9 03:46:06 32° SW 03:47:03 51° S 03:50:19 10° E
ISS -3.5 03:47:10 10° WNW 03:50:25 72° SSW 03:53:40 10° ESE
Cosmos 2227 Rocket 2.6 03:46:13 10° NW 03:51:35 44° WSW 03:56:12 14° S
Cosmos 1980 Rocket 3.9 03:47:30 10° SSE 03:52:03 26° ESE 03:56:38 10° NE
Nadezhda 4 Rocket 4.0 03:49:48 10° N 03:56:01 88° ENE 04:02:15 10° S
Cosmos 990 Rocket 4.0 03:52:03 10° NNW 03:57:20 85° WSW 04:02:36 10° SSE
Cosmos 468 Rocket 4.0 03:56:59 19° SSW 04:00:47 89° ESE 04:05:58 10° NNE
Cosmos 1408 Rocket 3.8 03:58:02 10° N 04:02:25 72° E 04:06:49 10° SSE
Cosmos 2150 Rocket 4.4 03:58:44 10° NW 04:03:40 42° WSW 04:08:00 13° S
Cosmos 1766 Rocket 3.9 03:59:39 10° N 04:04:03 70° ENE 04:08:27 10° SSE
Cosmos 1812 Rocket 4.4 04:05:09 19° SW 04:07:50 37° WNW 04:12:01 10° N
Cosmos-2242 4.3 04:04:08 10° SSE 04:08:07 37° E 04:12:06 10° NNE
GEOS 3 Rocket 3.8 04:04:21 10° SSE 04:09:25 51° SW 04:14:28 10° NW
NOSS 2-1 (D) 3.5 04:08:17 19° SSW 04:11:05 79° SE 04:15:47 10° NE
Cosmos 2278 3.9 04:07:06 17° SW 04:11:25 62° WNW 04:17:04 10° NNE
Lacrosse 5 rocket 3.5 04:08:37 10° NW 04:11:32 22° N 04:14:26 10° NE
Cosmos 405 Rocket 3.8 04:08:02 10° NNW 04:11:37 30° W 04:13:48 18° SW
Cosmos 2369 3.8 04:07:53 17° SW 04:12:15 68° WNW 04:17:56 10° NNE
NOSS 2-1 (C) 3.5 04:09:37 19° SSW 04:12:26 79° SE 04:17:10 10° NE
Cosmos 2297 Rocket 2.6 04:08:00 10° NW 04:13:16 41° WSW 04:18:31 10° S
UNK 3.8 04:12:33 10° S 04:17:10 60° W 04:21:50 10° NNW
Cosmos 1766 3.3 04:13:39 13° S 04:17:11 87° E 04:21:09 10° N
Cosmos 1898 Rocket 4.3 04:12:33 10° NW 04:17:17 33° WSW 04:21:41 11° SSW
Milstar 3 Cent rocket 4.3 04:17:17 10° S 04:19:19 12° SSE 04:21:40 10° SE
Resurs 1-4 Rocket 2.1 04:17:48 10° NNE 04:23:07 88° WNW 04:28:23 10° SSW
Cosmos 1125 Rocket 3.8 04:18:26 10° NNW 04:23:40 72° ENE 04:28:51 10° SSE
Cosmos 1943 Rocket 4.5 04:23:07 10° WNW 04:25:55 14° NNW 04:28:43 10° N
UNKNOWN OBJECT B 3.0 04:21:59 10° NNE 04:25:57 73° ESE 04:29:48 10° S
Cosmos 2026 Rocket 4.5 04:20:53 10° N 04:27:15 67° ENE 04:33:30 10° SSE
NOSS 2-1 (E) 3.6 04:24:14 15° SW 04:27:31 84° NW 04:32:26 10° NE
Lacrosse 5 3.6 04:24:58 10° WNW 04:29:33 32° N 04:34:07 10° ENE
Cosmos 1378 3.4 04:27:13 10° NNW 04:30:55 49° W 04:34:34 10° S
ADEOS 4.3 04:26:13 10° N 04:31:05 40° WNW 04:35:33 12° SW
Cosmos 1937 Rocket 4.2 04:27:12 10° NW 04:31:48 33° WSW 04:36:25 10° SSW
Meteor 1-24 Rocket 4.1 04:26:57 10° NNW 04:32:20 46° W 04:37:51 10° SSW
Cosmos 1758 3.8 04:28:25 10° S 04:32:24 61° E 04:36:23 10° NNE
Cosmos 841 Rocket 3.7 04:28:30 10° SSW 04:33:45 77° ESE 04:39:03 10° NNE
SL-16 R/B 4.4 04:30:22 10° SSE 04:34:33 22° E 04:38:45 10° NE
Cosmos 1634 Rocket 4.2 04:28:24 10° S 04:34:38 78° E 04:40:57 10° NNE
MOS 1-B 4.4 04:29:11 10° NNE 04:35:03 89° ESE 04:40:52 10° SSW
NOSS 3-4 (A) 4.1 04:29:05 10° NW 04:35:37 44° WSW 04:42:29 10° S
NOSS 3-4 (C) 4.1 04:29:10 10° NW 04:35:45 45° WSW 04:42:40 10° S
CZ-2C R/B 3.9 04:32:21 10° SSE 04:37:04 82° ENE 04:41:42 10° NNW
Cosmos 1953 2.5 04:34:24 10° S 04:38:26 75° E 04:42:30 10° NNE
MTI 4.0 04:35:48 10° S 04:39:00 52° W 04:42:16 10° NNW
ARIANE 5 R/B 2.9 04:35:28 10° N 04:40:24 50° WNW 04:45:22 10° SW
ERS-2 3.8 04:37:40 10° NNW 04:40:35 22° WNW 04:43:27 10° WSW
Cosmos 1763 Rocket 3.5 04:36:17 10° SSW 04:41:32 83° WNW 04:46:45 10° NNE
EO 1 Del DPAF 4.0 04:38:19 10° SSW 04:41:53 35° W 04:45:29 10° NNW
Cosmos 1092 Rocket 4.2 04:37:55 10° NNW 04:44:02 57° W 04:50:11 10° S
Cosmos 1437 2.8 04:42:08 10° NNW 04:45:30 87° W 04:48:50 10° S
CZ-2D R/B 3.6 04:42:37 10° NNE 04:46:57 89° W 04:51:20 10° SSW
CZ-3A R/B 3.3 04:36:24 10° SW 04:48:02 78° SE 04:52:17 10° ENE
Abrixas 2.9 04:45:48 10° W 04:48:44 42° SSW 04:51:40 10° SE
Cosmos 1441 Rocket 3.9 04:45:32 10° NNW 04:49:13 37° W 04:52:54 10° SSW
Cosmos 2263 Rocket 3.9 04:44:12 10° NNW 04:49:26 38° NE 04:54:36 10° ESE
CZ-4B R/B 3.9 04:44:48 10° NNE 04:50:19 58° E 04:55:42 10° S
Cosmos 1805 3.3 04:47:04 10° S 04:50:58 89° W 04:54:55 10° N
ATLAS CENTAUR R/B 2.1 04:50:49 10° SW 04:55:51 64° NW 05:00:47 10° NE
NOSS 7 (D) 4.4 04:54:15 10° SW 04:57:37 87° NW 05:01:11 10° NE
USA 234 4.0 04:52:07 10° E 04:58:31 58° NNE 05:04:55 10° NW
Cosmos 2227 4.3 04:53:04 10° NNW 04:58:48 65° WSW 05:04:29 10° SSE
Thor Agena Rocket 3.5 04:56:22 10° SSE 05:01:25 86° WSW 05:06:31 10° NNW
Cosmos 1461 2.8 04:58:09 10° NW 05:02:23 83° SW 05:06:24 10° SE
IRS-1D 4.4 05:00:04 10° N 05:04:30 34° WNW 05:08:56 10° SW
MOZ.5/SAFIR/RUBIN 5/SL-8 3.8 05:00:09 10° S 05:04:50 64° WSW 05:09:30 10° NNW
RESURS DK-1 2.4 05:01:14 10° NNW 05:05:24 90° WNW 05:09:32 10° SSE
Meteor 1-21 Rocket 4.5 05:00:06 10° NNW 05:05:55 60° W 05:11:43 10° S
